Other Public Products
Issued by NWS Grand Forks, ND

Home | Current Version | Previous Version | Graphics & Text | Print | Product List | Glossary On
Versions: 1 2 3 4 5 6 7 8 9 10 11 12 13 14 15 16 17 18 19 20 21 22 23 24 25 26 27 28 29 30 31 32 33 34 35 36 37 38 39 40 41 42 43 44 45 46 47 48 49 50
000
FPUS83 KFGF 301110
OPUFGF
PRAIRIE TO PINES WEATHER ROUNDUP
NATIONAL WEATHER SERVICE EASTERN NORTH DAKOTA/GRAND FORKS ND
600 AM CDT THU MAR 30 2017

 **SATELLITE DATA USED TO AUGMENT SKY COVER AT AUTOMATED STATIONS**
 *****  WEATHER ACROSS EASTERN NORTH DAKOTA  *****

CITY           SKY/WX    TMP DP  RH WIND       PRES   REMARKS
GRAND FORKS    MOCLDY    37  35  92 S8        29.95F
GRAND FORKS AF CLOUDY    40  35  83 S9        29.94F
GRAND CITY NWS NOT AVBL
BUXTON         NOT AVBL
DEVILS LAKE    FAIR      39  34  82 S15       29.88S
FARGO          FAIR      34  33  96 SE7       29.96F
WAHPETON ARPT  PTSUNNY   32  32 100 E3        29.99S
$$

 *****  WEATHER ACROSS CENTRAL AND WESTERN NORTH DAKOTA  *****

CITY           SKY/WX    TMP DP  RH WIND       PRES   REMARKS
JAMESTOWN      FAIR      32  31  96 S9        29.91F WCI  24
BISMARCK       FAIR      40  34  79 SE8       29.86F
MINOT          FAIR      46  36  68 SW13G22   29.76F
MINOT AFB      FAIR      42  38  84 SW15      29.75F
GARRISON         N/A     39  34  82 S7        29.80F
WILLISTON      CLOUDY    42  38  85 CALM      29.72F
DICKINSON      CLOUDY    40  36  86 S12       29.74F
HETTINGER      CLOUDY    39  35  86 SE8       29.80F
$$

 *****  OTHER OBSERVATIONS NORTHEAST NORTH DAKOTA  *****

CITY           SKY/WX    TMP DP  RH WIND       PRES   REMARKS
WALHALLA       NOT AVBL
LANGDON        CLOUDY    39  37  93 S22       29.86S
CAVALIER       LGT RAIN  41  36  81 S15       29.89S
GRAFTON        PTSUNNY   39  37  93 S9        29.95F
CANDO          NOT AVBL
FORT TOTTEN      N/A     38  37  97 S14       29.95S
ROLLA          PTSUNNY   37  37 100 S10       29.82S
RUGBY          NOT AVBL
 ***** THE ABOVE OBSERVATIONS ARE NON NWS ARE NOT QUALITY
        CONTROLLED AND MAY MIS-REPORT RAIN FOR SNOW...
$$

 *****  OTHER OBSERVATIONS SOUTHEAST NORTH DAKOTA *****

CITY           SKY/WX    TMP DP  RH WIND       PRES   REMARKS
COOPERSTOWN    FAIR      34  34 100 S9        29.93F
VALLEY CITY    FAIR      34  34 100 S8        29.95S
OAKES          NOT AVBL
GWINNER        SUNNY     32  32 100 MISG      29.94F
SHEYENNE NWR     N/A     26  26 100 SE2       29.95S
BUFFALO        NOT AVBL
WYNDMERE       NOT AVBL
 ***** THE ABOVE OBSERVATIONS ARE NON NWS ARE NOT QUALITY
       CONTROLLED AND MAY MIS-REPORT RAIN FOR SNOW...
$$

  *****  WEATHER ACROSS NORTHERN MINNESOTA  *****

CITY           SKY/WX    TMP DP  RH WIND       PRES   REMARKS
FLAG ISLAND    FAIR      34  30  86 SE12      29.98S
WARROAD        MOCLDY    36  30  80 S5        29.99S
ROSEAU         CLOUDY    36  32  87 SE8       29.97F
HALLOCK        CLOUDY    39  37  93 S10       29.93F
THF RVR FALLS  FAIR      35  33  92 S5        29.99R
HALSTAD          N/A     33  32  98 S6          N/A
FOSSTON        MOCLDY    32  30  93 SE6       29.99S
BAUDETTE       FAIR      30  27  88 E5        30.00S
WASKISH        FAIR      30  28  93 SE3       30.00F
CROOKSTON      FAIR      34  34 100 S7        29.98S
$$
  *****  WEATHER ACROSS CENTRAL AND WEST MINNESOTA  *****

CITY           SKY/WX    TMP DP  RH WIND       PRES   REMARKS
BEMIDJI        FAIR      27  27  98 SE5       30.01S WCI  22
PARK RAPIDS    CLOUDY    32  27  81 SE5       30.00F
WADENA         CLOUDY    32  30  93 CALM      29.99F
DETROIT LAKES  FOG       36  34  93 SE7       30.00S VSB 1/4
MOORHEAD       FAIR      32  32 100 SE5       29.98F FOG
FERGUS FALLS   CLOUDY    37  37 100 CALM      30.02F
ELBOW LAKE     CLOUDY    38  37  98 CALM      29.98F
MORRIS MN      DRIZZLE   39  37  93 E8        29.96F
STAPLES        CLOUDY    30  28  93 E3        30.01F
WHEATON        CLOUDY    36  34  93 E5        30.00F
$$
  *****  WEATHER ELSEWHERE ACROSS MINNESOTA  *****

CITY           SKY/WX    TMP DP  RH WIND       PRES   REMARKS
DULUTH         CLOUDY    31  30  96 E7        30.04F WCI  24
INTRNTL FALLS  FAIR      26  23  88 SE6       30.03S WCI  19
ELY            MOCLDY    23  21  93 CALM      30.06S
CLOQUET        CLOUDY    32  30  93 E3        30.04F
BRAINERD       CLOUDY    31  29  92 NE3       30.02F
HIBBING        MOCLDY    22  22 100 CALM      30.04F
ALEXANDRIA     CLOUDY    38  36  92 E8        29.98F
SAINT CLOUD    CLOUDY    35  32  88 NE8       29.98F
MINNEAPOLIS    CLOUDY    39  35  86 NE9G18    29.95F
$$

  *****  WEATHER ACROSS SOUTH DAKOTA  *****

CITY           SKY/WX    TMP DP  RH WIND       PRES   REMARKS
SIOUX FALLS    CLOUDY    39  38  96 NE12      29.86F
BROOKINGS      CLOUDY    37  35  92 NE10      29.89F
WATERTOWN      CLOUDY    37  35  92 E8        29.92F
HURON          CLOUDY    38  36  92 E7        29.90F
SISSETON         N/A     38  37  97 SE3       29.95F
ABERDEEN       MOCLDY    33  30  88 E6        29.93F
MITCHELL       CLOUDY    40  37  89 NE9       29.90F
PIERRE         CLOUDY    30  30 100 CALM      29.87F
MOBRIDGE       FAIR      32  28  85 SE7       29.86F
RAPID CITY     FAIR      34  33  96 SE6       29.79F FOG
$$

  *****  SOME WEATHER IN NEARBY STATES *****

CITY           SKY/WX    TMP DP  RH WIND       PRES   REMARKS
GLASGOW MT     FAIR      39  31  72 E9        29.68S
GREAT FALLS MT FAIR      42  32  67 SW14      29.70F
CHEYENNE WY    FAIR      37  28  70 W10       29.84F
SCOTTSBLUFF NE FAIR      33  29  85 CALM      29.80F
OMAHA NE       LGT RAIN  42  37  82 N17       29.70S
DES MOINES IA  CLOUDY    43  40  89 NE13G21   29.66S
DAVENPORT IA   CLOUDY    43  41  93 E21G30    29.70F
CHICAGO IL     RAIN      42  39  89 E17       29.85F FOG
EAU CLAIRE WI  CLOUDY    37  34  89 NE12      29.96F
LA CROSSE WI   CLOUDY    40  36  86 NE9       29.90F
$$

  *****  SOME NATIONAL WEATHER *****

CITY           SKY/WX    TMP DP  RH WIND       PRES   REMARKS
LA GUARDIA NY  FAIR      41  23  48 N8        30.26R
RALEIGH NC     CLOUDY    55  45  68 VRB5      30.16R
ATLANTA GA     MOCLDY    63  56  78 CALM      29.97R
NEW ORLEANS LA CLOUDY    72  69  90 SE3       29.86F
OKLAHOMA CITY  CLOUDY    47  39  74 NW15G24   29.74S
ALBUQUERQUE NM FAIR      40  36  86 SE6       30.03S
SALT LAKE CITY MOCLDY    51  35  54 SE9       29.85F
LOS ANGELES CA FAIR      56  53  90 CALM      29.97S
BOISE ID       FAIR      46  44  93 SE10      29.77F
SEATTLE WA     CLOUDY    44  40  85 W5        30.06R
$$

*** WEATHER ACROSS MANITOBA...SASKATCHEWAN AND ONTARIO ***
                ***ONTARIO***

CITY           SKY/WX    TMP DP  RH WIND       PRES   REMARKS
GERALDTON      MOCLDY    18  16  93 CALM      30.18F
THUNDER BAY    MOCLDY    30  28  93 NE6       30.15F WCI  24
SIOUX LOOKOUT  NOT AVBL
TORONTO        MOCLDY    36  23  60 E12       30.25F
BIG TROUT LK   LGT RAIN  34  28  80 S14       29.98F WCI  24
PICKLE LAKE    CLOUDY    32  21  64 S10       30.02  WCI  24
DRYDEN         CLEAR     32  25  74 S7        30.00F
KENORA         MOCLDY    36  30  80 S9        29.97F
$$
                *** MANITOBA***

CITY           SKY/WX    TMP DP  RH WIND       PRES   REMARKS
BRANDON        MOCLDY    34  32  93 E3        29.77S
DAUPHIN        CLEAR     32  32 100 NW5       29.77S FOG
ISLAND LAKE    DRZL/FOG  34  34 100 S2        29.81F VSB 3/4
PILOT MOUND      N/A     37  34  87 S20G25      N/A
THE PAS        CLOUDY    32  30  93 NE2       29.82S FOG
THOMPSON       LGT SNOW  32  30  93 NE6       29.86F
WINNIPEG       MOCLDY    41  36  81 S20G28    29.86S
LYNN LAKE      CLOUDY    30  23  74 E7        29.87S WCI  23
CHURCHILL      MOCLDY     7   5  92 E9        30.05F WCI  -7
GILLAM         CLOUDY    30  21  69 E5        29.92S
$$
                ***SASKATCHEWAN***

CITY           SKY/WX    TMP DP  RH WIND       PRES   REMARKS
ESTEVAN        CLOUDY    39  34  81 S7        29.74S
KINDERSLEY     CLOUDY    37  36  93 NE13      29.66F
LLOYDMINSTER   FOG       30  30 100 E10       29.73S VSB 1/4 WCI  21
PRINCE ALBERT  CLOUDY    34  32  93 E5        29.81R
REGINA         CLOUDY    39  34  81 VRB2      29.72S
YORKTON        FOG       28  28 100 N7        29.75S VS


USA.gov is the U.S. government's official web portal to all federal, state and local government web resources and services.